Regional Weather Roundup
Issued by NWS

Home | Current Version | Previous Version | Graphics & Text | Print | Product List | Glossary On
Versions: 1 2 3 4 5 6 7 8 9 10 11 12 13 14 15 16 17 18 19 20 21 22 23 24 25 26 27 28 29 30 31 32 33 34 35 36 37 38 39 40 41 42
060
ASUS44 KJAN 020303
RWRMS

MISSISSIPPI HOURLY WEATHER ROUNDUP
NATIONAL WEATHER SERVICE JACKSON MS
1000 PM CDT MON SEP 01 2014

NOTE: "FAIR: INDICATES FEW OR NO CLOUDS BELOW 12,000 FEET WITH NO
SIGNIFICANT WEATHER AND/OR OBSTRUCTIONS TO VISIBILITY.

MSZ001>002-007>008-010>013-018>021-025>028-034>036-020400-
NORTHWEST MISSISSIPPI

CITY           SKY/WX    TMP DP  RH WIND       PRES   REMARKS
CLARKSDALE     FAIR      81  73  78 S9        29.97F
CLEVELAND      FAIR      78  74  89 S9        29.97S
GREENWOOD      MOCLDY    77  71  82 S7        30.00S
GREENVILLE     CLEAR     77  72  84 S7        29.97S
GRENADA        FAIR      79  70  73 S6        30.01R
OLIVE BRANCH   CLEAR     79  79 100 S7        29.97F
OXFORD         FAIR      79  70  73 S5        30.02R
TUNICA         CLEAR     77  73  88 S8        29.97S
$$

MSZ003>006-009-014>017-022>024-029>033-037>039-020400-
NORTHEAST MISSISSIPPI

CITY           SKY/WX    TMP DP  RH WIND       PRES   REMARKS
BELMONT        FAIR      76  71  83 S3        30.03S
COLUMBUS AFB   PTCLDY    77  71  81 S2        30.02S
CORINTH        FAIR      77  72  83 SE6       30.00F
GOLDN TRIANGLE PTCLDY    77  70  78 S6        30.03S
STARKVILLE     MOCLDY    77  72  83 CALM      30.03S
TUPELO         CLEAR     81  71  71 SW3       30.01S
$$

MSZ040-058-020400-
CENTRAL MISSISSIPPI

CITY           SKY/WX    TMP DP  RH WIND       PRES   REMARKS
JACKSON INTL   CLOUDY    76  72  87 SE9       30.03R
JACKSON HAWKNS CLOUDY    79  73  82 SE6       30.03R
MERIDIAN KEY   CLOUDY    78  72  81 CALM      30.06R
MERIDIAN NAS   MOCLDY    78  72  81 W5        30.05R
RAYMOND        FAIR      77  73  88 S8        30.02S
VICKSBURG      MOCLDY    78  73  84 S8        30.00R
$$

MSZ059>079-020400-
SOUTH MISSISSIPPI

CITY           SKY/WX    TMP DP  RH WIND       PRES   REMARKS
BROOKHAVEN     FAIR      77  75  94 SE6       30.05F
HATTIESBURG    CLOUDY    80  75  84 SE5       30.06S
MCCOMB         CLOUDY    77  75  93 SE3       30.05S
NATCHEZ        MOCLDY    77  72  83 SE10      30.02F
PINE BELT      CLOUDY    79  72  78 S5        30.08R
$$

MSZ080>082-020400-
COASTAL MISSISSIPPI

CITY           SKY/WX    TMP DP  RH WIND       PRES   REMARKS
BILOXI         CLOUDY    83  75  76 S6        30.06S HX  91
PASCAGOULA     CLOUDY    77  75  93 CALM      30.07R
GULFPORT       CLOUDY    80  76  87 SE3       30.06S
$$



USA.gov is the U.S. government's official web portal to all federal, state and local government web resources and services.